Project,Study,Ord_Occ,Event_Num,Cast_ID,Date_Time_UTC,Date_Time_PST,Lat_Dec,Lon_Dec,Sta_ID,Line,Sta,Depth,Pressure,PrQ,Temp1,Temp1Q,Temp2,Temp2Q,TempAve,Salt1,Salt1Q,Salt1_Corr,Salt2,Salt2Q,Salt2_Corr,SaltAve_Corr,Ox1,Ox1Q,Ox1_CruiseCorr,Ox1_StaCorr,Ox2,Ox2Q,Ox2_CruiseCorr,Ox2_StaCorr,OxAve_StaCorr,Ox1uM,Ox1uM_CruiseCorr,Ox1uM_StaCorr,Ox2uM,Ox2uM_CruiseCorr,Ox2uM_StaCorr,OxAveuM_StaCorr,FluorV,FluorQ,EstChl_CruiseCorr,EstChl_StaCorr,ISUSV,ISUSQ,EstNO3_CruiseCorr,EstNO3_StaCorr,SigThetaTS1,SigThetaTS1Q,SigThetaTS2,SigThetaTS2Q,BAT,XMiss,TransQ,pH,pHQ,SPAR,SPARQ,PAR,PARQ,PoT1,PoT2,DynHt,SVA,OxSat1,OxSat2,BTL_Depth,BTL_Temp,SaltB,OxB,OxBuM,Chl-a,Phaeo,NO3,NO2,NH4,PO4,SIL
CalCOFI,2007SR,006,7,2007_006u,14-Jul-2020 07:54:19,13-Jul-2020 23:54:19,32.67974,-117.87386,093.3 035.0,093.3,035.0,516.000,520.303,,6.7221,,6.7207,,6.7214,34.2784,,34.2786,34.2800,,34.2816,34.2801,0.4547,,0.4574,0.4531,1.5857,,-99.0,0.7297,0.5914,19.774,20.1540,22.4174,68.964,,32.2111,27.3143,0.0324,,,,1.6443,,35.9321,38.128,26.8946,,26.8961,,0.6277,85.4779,,7.575,,1.9043E+00,,1.0000E-12,,6.6739,6.6725,0.9293,,6.660,23.228,,,,,,,,,,,,
CalCOFI,2007SR,006,7,2007_006u,14-Jul-2020 07:54:23,13-Jul-2020 23:54:23,32.67974,-117.87386,093.3 035.0,093.3,035.0,515.000,519.294,,6.7290,,6.7285,,6.7288,34.2785,,34.2787,34.2794,,34.2810,34.2799,0.4496,,0.4521,0.4478,1.5899,,-99.0,0.7404,0.5941,19.555,19.9254,22.2038,69.145,,32.6172,27.4105,0.0323,,,,1.6420,,35.8675,38.062,26.8938,,26.8946,,0.6281,85.4687,,7.575,,1.9043E+00,,1.0000E-12,,6.6809,6.6803,0.9293,,6.587,23.293,515,6.729,,, ,,,,,,,
CalCOFI,2007SR,006,7,2007_006u,14-Jul-2020 07:54:27,13-Jul-2020 23:54:27,32.67974,-117.87386,093.3 035.0,093.3,035.0,514.000,518.284,,6.7358,,6.7357,,6.7358,34.2785,,34.2787,34.2795,,34.2811,34.2799,0.4557,,0.4585,0.4542,1.5835,,-99.0,0.7241,0.5892,19.817,20.1989,22.4593,68.865,,31.9890,27.2242,0.0330,,,,1.6394,,35.7945,37.988,26.8928,,26.8937,,0.6281,85.4697,,7.575,,1.9043E+00,,1.0000E-12,,6.6878,6.6876,0.9293,,6.677,23.203,,,,,,,,,,,,
CalCOFI,2007SR,006,7,2007_006u,14-Jul-2020 07:54:28,13-Jul-2020 23:54:28,32.67974,-117.87386,093.3 035.0,093.3,035.0,513.000,517.274,,6.7482,,6.7513,,6.7498,34.2776,,34.2778,34.2779,,34.2795,34.2787,0.4613,,0.4643,0.4600,1.5814,,-99.0,0.7188,0.5894,20.063,20.4557,22.6992,68.775,,31.7871,27.2432,0.0322,,,,1.6384,,35.7665,37.960,26.8904,,26.8903,,0.6286,85.4589,,7.576,,1.9043E+00,,1.0000E-12,,6.7002,6.7033,0.9293,,6.762,23.180,,,,,,,,,,,,
CalCOFI,2007SR,006,7,2007_006u,14-Jul-2020 07:54:29,13-Jul-2020 23:54:29,32.67974,-117.87386,093.3 035.0,093.3,035.0,512.000,516.265,,6.7523,,6.7531,,6.7527,34.2762,,34.2764,34.2771,,34.2787,34.2776,0.4668,,0.4701,0.4657,1.5835,,-99.0,0.7241,0.5949,20.301,20.7041,22.9313,68.867,,31.9935,27.4624,0.0315,,,,1.6376,,35.7440,37.937,26.8888,,26.8894,,0.6284,85.4621,,7.575,,1.9043E+00,,1.0000E-12,,6.7044,6.7052,0.9293,,6.842,23.212,,,,,,,,,,,,
CalCOFI,2007SR,006,7,2007_006u,14-Jul-2020 07:54:30,13-Jul-2020 23:54:30,32.67974,-117.87386,093.3 035.0,093.3,035.0,511.000,515.255,,6.7629,,6.7639,,6.7634,34.2762,,34.2764,34.2767,,34.2783,34.2774,0.4721,,0.4756,0.4712,1.5829,,-99.0,0.7226,0.5969,20.531,20.9442,23.1556,68.840,,31.9329,27.5443,0.0326,,,,1.6369,,35.7243,37.917,26.8874,,26.8876,,0.6297,85.4341,,7.575,,1.9043E+00,,1.0000E-12,,6.7150,6.7160,0.9293,,6.922,23.209,,,,,,,,,,,,
CalCOFI,2007SR,006,7,2007_006u,14-Jul-2020 07:54:31,13-Jul-2020 23:54:31,32.67974,-117.87386,093.3 035.0,093.3,035.0,510.000,514.246,,6.7593,,6.7594,,6.7594,34.2716,,34.2718,34.2723,,34.2739,34.2729,0.4812,,0.4851,0.4806,1.5829,,-99.0,0.7226,0.6016,20.929,21.3597,23.5437,68.841,,31.9352,27.7395,0.0322,,,,1.6360,,35.6991,37.891,26.8842,,26.8848,,0.6285,85.4605,,7.576,,1.6154E+00,,1.0000E-12,,6.7116,6.7116,0.9293,,7.055,23.206,,,,,,,,,,,,
CalCOFI,2007SR,006,7,2007_006u,14-Jul-2020 07:54:33,13-Jul-2020 23:54:33,32.67974,-117.87386,093.3 035.0,093.3,035.0,509.000,513.236,,6.7544,,6.7544,,6.7544,34.2694,,34.2696,34.2698,,34.2714,34.2705,0.4883,,0.4925,0.4880,1.5798,,-99.0,0.7147,0.6014,21.237,21.6812,23.8440,68.704,,31.6278,27.7359,0.0330,,,,1.6352,,35.6766,37.868,26.8831,,26.8834,,0.6285,85.4611,,7.575,,1.9070E+00,,1.0000E-12,,6.7067,6.7068,0.9293,,7.158,23.157,,,,,,,,,,,,
CalCOFI,2007SR,006,7,2007_006u,14-Jul-2020 07:54:34,13-Jul-2020 23:54:34,32.67974,-117.87386,093.3 035.0,093.3,035.0,508.000,512.227,,6.7500,,6.7502,,6.7501,34.2659,,34.2661,34.2664,,34.2680,34.2671,0.4911,,0.4955,0.4909,1.5758,,-99.0,0.7045,0.5977,21.360,21.8096,23.9640,68.533,,31.2442,27.6041,0.0340,,,,1.6345,,35.6569,37.849,26.8809,,26.8813,,0.6287,85.4562,,7.575,,1.9043E+00,,1.0000E-12,,6.7025,6.7027,0.9293,,7.198,23.096,,,,,,,,,,,,
CalCOFI,2007SR,006,7,2007_006u,14-Jul-2020 07:54:35,13-Jul-2020 23:54:35,32.67974,-117.87386,093.3 035.0,093.3,035.0,507.000,511.217,,6.7536,,6.7540,,6.7538,34.2646,,34.2648,34.2653,,34.2669,34.2659,0.4885,,0.4927,0.4882,1.5845,,-99.0,0.7267,0.6075,21.244,21.6885,23.8509,68.910,,32.0900,27.9705,0.0330,,,,1.6336,,35.6317,37.823,26.8795,,26.8799,,0.6287,85.4562,,7.576,,1.9043E+00,,1.0000E-12,,6.7062,6.7066,0.9293,,7.160,23.225,,,,,,,,,,,,
CalCOFI,2007SR,006,7,2007_006u,14-Jul-2020 07:54:36,13-Jul-2020 23:54:36,32.67974,-117.87386,093.3 035.0,093.3,035.0,506.000,510.207,,6.7555,,6.7559,,6.7557,34.2644,,34.2646,34.2651,,34.2667,34.2657,0.4911,,0.4955,0.4909,1.5746,,-99.0,0.7015,0.5962,21.358,21.8075,23.9620,68.481,,31.1275,27.5448,0.0327,,,,1.6326,,35.6036,37.794,26.8790,,26.8795,,0.6277,85.4787,,7.577,,1.9043E+00,,1.0000E-12,,6.7081,6.7085,0.9293,,7.199,23.081,,,,,,,,,,,,
CalCOFI,2007SR,006,7,2007_006u,14-Jul-2020 07:54:37,13-Jul-2020 23:54:37,32.67974,-117.87386,093.3 035.0,093.3,035.0,505.000,509.198,,6.7567,,6.7571,,6.7569,34.2643,,34.2645,34.2650,,34.2666,34.2656,0.4895,,0.4938,0.4893,1.5765,,-99.0,0.7063,0.5978,21.289,21.7355,23.8947,68.564,,31.3137,27.6042,0.0317,,,,1.6318,,35.5811,37.772,26.8788,,26.8793,,0.6282,85.4675,,7.578,,1.9043E+00,,1.0000E-12,,6.7094,6.7098,0.9293,,7.176,23.110,,,,,,,,,,,,
CalCOFI,2007SR,006,7,2007_006u,14-Jul-2020 07:54:38,13-Jul-2020 23:54:38,32.67974,-117.87386,093.3 035.0,093.3,035.0,504.000,508.188,,6.7577,,6.7581,,6.7579,34.2642,,34.2644,34.2648,,34.2664,34.2654,0.4969,,0.5015,0.4970,1.5756,,-99.0,0.7040,0.6005,21.612,22.0727,24.2097,68.523,,31.2218,27.7158,0.0331,,,,1.6308,,35.5530,37.743,26.8785,,26.8790,,0.6283,85.4640,,7.577,,1.9043E+00,,1.0000E-12,,6.7105,6.7109,0.9293,,7.284,23.097,,,,,,,,,,,,
CalCOFI,2007SR,006,7,2007_006u,14-Jul-2020 07:54:39,13-Jul-2020 23:54:39,32.67974,-117.87386,093.3 035.0,093.3,035.0,503.000,507.179,,6.7596,,6.7603,,6.7600,34.2641,,34.2643,34.2648,,34.2664,34.2654,0.4994,,0.5041,0.4996,1.5765,,-99.0,0.7063,0.6030,21.718,22.1833,24.3131,68.566,,31.3182,27.8157,0.0330,,,,1.6295,,35.5165,37.706,26.8782,,26.8787,,0.6283,85.4652,,7.579,,1.9043E+00,,1.0000E-12,,6.7125,6.7132,0.9293,,7.321,23.112,,,,,,,,,,,,
CalCOFI,2007SR,006,7,2007_006u,14-Jul-2020 07:54:40,13-Jul-2020 23:54:40,32.67974,-117.87386,093.3 035.0,093.3,035.0,502.000,506.169,,6.7659,,6.7665,,6.7662,34.2632,,34.2634,34.2639,,34.2655,34.2645,0.5020,,0.5068,0.5023,1.5761,,-99.0,0.7053,0.6038,21.833,22.3034,24.4252,68.547,,31.2756,27.8504,0.0330,,,,1.6284,,35.4857,37.675,26.8766,,26.8771,,0.6282,85.4679,,7.578,,1.9043E+00,,1.0000E-12,,6.7189,6.7195,0.9293,,7.360,23.109,,,,,,,,,,,,
CalCOFI,2007SR,006,7,2007_006u,14-Jul-2020 07:54:40,13-Jul-2020 23:54:40,32.67974,-117.87386,093.3 035.0,093.3,035.0,501.000,505.160,,6.7762,,6.7769,,6.7766,34.2620,,34.2622,34.2631,,34.2647,34.2635,0.5040,,0.5089,0.5043,1.5755,,-99.0,0.7038,0.6041,21.918,22.3921,24.5081,68.520,,31.2150,27.8616,0.0337,,,,1.6276,,35.4632,37.652,26.8743,,26.8751,,0.6287,85.4565,,7.578,,1.9043E+00,,1.0000E-12,,6.7292,6.7299,0.9293,,7.391,23.105,,,,,,,,,,,,
CalCOFI,2007SR,006,7,2007_006u,14-Jul-2020 07:54:41,13-Jul-2020 23:54:41,32.67974,-117.87386,093.3 035.0,093.3,035.0,500.000,504.150,,6.7832,,6.7840,,6.7836,34.2616,,34.2618,34.2623,,34.2639,34.2629,0.5051,,0.5101,0.5055,1.5750,,-99.0,0.7025,0.6040,21.968,22.4443,24.5569,68.499,,31.1679,27.8624,0.0338,,,,1.6269,,35.4435,37.632,26.8730,,26.8735,,0.6282,85.4668,,7.579,,1.9043E+00,,1.0000E-12,,6.7363,6.7371,0.9293,,7.409,23.102,,,,,,,,,,,,
CalCOFI,2007SR,006,7,2007_006u,14-Jul-2020 07:54:42,13-Jul-2020 23:54:42,32.67974,-117.87386,093.3 035.0,093.3,035.0,499.000,503.141,,6.7902,,6.7909,,6.7906,34.2614,,34.2616,34.2624,,34.2640,34.2628,0.5054,,0.5104,0.5058,1.5745,,-99.0,0.7012,0.6035,21.979,22.4558,24.5676,68.478,,31.1208,27.8442,0.0320,,,,1.6263,,35.4267,37.615,26.8719,,26.8726,,0.6290,85.4489,,7.578,,1.9043E+00,,1.0000E-12,,6.7434,6.7441,0.9293,,7.414,23.098,,,,,,,,,,,,
CalCOFI,2007SR,006,7,2007_006u,14-Jul-2020 07:54:44,13-Jul-2020 23:54:44,32.67974,-117.87386,093.3 035.0,093.3,035.0,498.000,502.131,,6.7984,,6.7988,,6.7986,34.2609,,34.2611,34.2617,,34.2633,34.2622,0.5058,,0.5108,0.5062,1.5740,,-99.0,0.6999,0.6031,21.999,22.4767,24.5871,68.455,,31.0692,27.8282,0.0320,,,,1.6260,,35.4183,37.607,26.8704,,26.8709,,0.6285,85.4608,,7.579,,1.9043E+00,,1.0000E-12,,6.7517,6.7521,0.9293,,7.422,23.095,,,,,,,,,,,,
CalCOFI,2007SR,006,7,2007_006u,14-Jul-2020 07:54:45,13-Jul-2020 23:54:45,32.67974,-117.87386,093.3 035.0,093.3,035.0,497.000,501.122,,6.7996,,6.8000,,6.7998,34.2611,,34.2613,34.2617,,34.2633,34.2623,0.5032,,0.5081,0.5035,1.5737,,-99.0,0.6992,0.6014,21.883,22.3556,24.4740,68.444,,31.0445,27.7593,0.0320,,,,1.6256,,35.4070,37.595,26.8704,,26.8708,,0.6282,85.4677,,7.579,,1.9043E+00,,1.0000E-12,,6.7530,6.7534,0.9293,,7.383,23.092,,,,,,,,,,,,
CalCOFI,2007SR,006,7,2007_006u,14-Jul-2020 07:54:46,13-Jul-2020 23:54:46,32.67974,-117.87386,093.3 035.0,093.3,035.0,496.000,500.112,,6.8005,,6.8009,,6.8007,34.2612,,34.2614,34.2618,,34.2634,34.2624,0.5059,,0.5109,0.5063,1.5735,,-99.0,0.6987,0.6025,22.002,22.4798,24.5900,68.434,,31.0221,27.8061,0.0336,,,,1.6251,,35.3930,37.581,26.8703,,26.8707,,0.6289,85.4509,,7.579,,1.9043E+00,,1.0000E-12,,6.7540,6.7543,0.9293,,7.423,23.089,,,,,,,,,,,,
CalCOFI,2007SR,006,7,2007_006u,14-Jul-2020 07:54:47,13-Jul-2020 23:54:47,32.67974,-117.87386,093.3 035.0,093.3,035.0,495.000,499.103,,6.8009,,6.8013,,6.8011,34.2612,,34.2614,34.2619,,34.2635,34.2625,0.5100,,0.5152,0.5106,1.5733,,-99.0,0.6981,0.6044,22.180,22.6656,24.7636,68.424,,30.9997,27.8817,0.0328,,,,1.6248,,35.3846,37.572,26.8703,,26.8707,,0.6280,85.4708,,7.579,,1.9043E+00,,1.0000E-12,,6.7544,6.7549,0.9293,,7.483,23.086,,,,,,,,,,,,
CalCOFI,2007SR,006,7,2007_006u,14-Jul-2020 07:54:48,13-Jul-2020 23:54:48,32.67974,-117.87386,093.3 035.0,093.3,035.0,494.000,498.093,,6.8026,,6.8030,,6.8028,34.2612,,34.2614,34.2620,,34.2636,34.2625,0.5079,,0.5130,0.5084,1.5730,,-99.0,0.6974,0.6029,22.089,22.5706,24.6749,68.412,,30.9727,27.8238,0.0326,,,,1.6247,,35.3818,37.570,26.8700,,26.8706,,0.6278,85.4763,,7.579,,1.9043E+00,,1.0000E-12,,6.7563,6.7567,0.9293,,7.453,23.083,,,,,,,,,,,,
CalCOFI,2007SR,006,7,2007_006u,14-Jul-2020 07:54:49,13-Jul-2020 23:54:49,32.67974,-117.87386,093.3 035.0,093.3,035.0,493.000,497.084,,6.8047,,6.8051,,6.8049,34.2611,,34.2613,34.2618,,34.2634,34.2624,0.5065,,0.5115,0.5069,1.5727,,-99.0,0.6966,0.6018,22.026,22.5048,24.6134,68.400,,30.9458,27.7796,0.0330,,,,1.6245,,35.3761,37.564,26.8696,,26.8701,,0.6276,85.4797,,7.579,,1.9043E+00,,1.0000E-12,,6.7585,6.7588,0.9293,,7.432,23.079,,,,,,,,,,,,
CalCOFI,2007SR,006,7,2007_006u,14-Jul-2020 07:54:50,13-Jul-2020 23:54:50,32.67974,-117.87386,093.3 035.0,093.3,035.0,492.000,496.074,,6.8049,,6.8051,,6.8050,34.2611,,34.2613,34.2617,,34.2633,34.2623,0.5060,,0.5110,0.5064,1.5725,,-99.0,0.6961,0.6013,22.008,22.4861,24.5959,68.391,,30.9256,27.7608,0.0323,,,,1.6243,,35.3705,37.558,26.8695,,26.8701,,0.6276,85.4798,,7.579,,1.9043E+00,,1.0000E-12,,6.7587,6.7589,0.9293,,7.426,23.076,,,,,,,,,,,,
CalCOFI,2007SR,006,7,2007_006u,14-Jul-2020 07:54:51,13-Jul-2020 23:54:51,32.67974,-117.87386,093.3 035.0,093.3,035.0,491.000,495.065,,6.8054,,6.8058,,6.8056,34.2609,,34.2611,34.2616,,34.2632,34.2622,0.5060,,0.5110,0.5064,1.5723,,-99.0,0.6956,0.6010,22.005,22.4829,24.5930,68.381,,30.9032,27.7481,0.0328,,,,1.6245,,35.3761,37.564,26.8694,,26.8698,,0.6275,85.4816,,7.579,,1.9043E+00,,1.0000E-12,,6.7594,6.7597,0.9293,,7.425,23.073,,,,,,,,,,,,
CalCOFI,2007SR,006,7,2007_006u,14-Jul-2020 07:54:52,13-Jul-2020 23:54:52,32.67974,-117.87386,093.3 035.0,093.3,035.0,490.000,494.055,,6.8053,,6.8056,,6.8055,34.2607,,34.2609,34.2613,,34.2629,34.2619,0.5059,,0.5109,0.5063,1.5721,,-99.0,0.6951,0.6007,22.002,22.4798,24.5900,68.372,,30.8830,27.7365,0.0335,,,,1.6250,,35.3902,37.578,26.8692,,26.8696,,0.6279,85.4741,,7.579,,1.9043E+00,,1.0000E-12,,6.7594,6.7596,0.9293,,7.424,23.070,,,,,,,,,,,,
CalCOFI,2007SR,006,7,2007_006u,14-Jul-2020 07:54:53,13-Jul-2020 23:54:53,32.67974,-117.87386,093.3 035.0,093.3,035.0,489.000,493.046,,6.8045,,6.8047,,6.8046,34.2604,,34.2606,34.2609,,34.2625,34.2616,0.5058,,0.5108,0.5062,1.5719,,-99.0,0.6946,0.6004,22.000,22.4777,24.5881,68.365,,30.8673,27.7277,0.0320,,,,1.6256,,35.4070,37.595,26.8691,,26.8694,,0.6278,85.4760,,7.579,,1.9043E+00,,1.0000E-12,,6.7586,6.7589,0.9293,,7.423,23.067,,,,,,,,,,,,
CalCOFI,2007SR,006,7,2007_006u,14-Jul-2020 07:54:54,13-Jul-2020 23:54:54,32.67974,-117.87386,093.3 035.0,093.3,035.0,488.000,492.036,,6.8035,,6.8036,,6.8036,34.2602,,34.2604,34.2607,,34.2623,34.2614,0.5058,,0.5108,0.5062,1.5718,,-99.0,0.6943,0.6003,21.997,22.4746,24.5852,68.359,,30.8538,27.7195,0.0327,,,,1.6264,,35.4295,37.618,26.8690,,26.8694,,0.6277,85.4771,,7.579,,1.9043E+00,,1.0000E-12,,6.7577,6.7578,0.9293,,7.422,23.065,,,,,,,,,,,,
CalCOFI,2007SR,006,7,2007_006u,14-Jul-2020 07:54:55,13-Jul-2020 23:54:55,32.67974,-117.87386,093.3 035.0,093.3,035.0,487.000,491.027,,6.8026,,6.8029,,6.8028,34.2599,,34.2601,34.2604,,34.2620,34.2611,0.5102,,0.5154,0.5108,1.5716,,-99.0,0.6938,0.6023,22.189,22.6750,24.7724,68.351,,30.8359,27.8042,0.0324,,,,1.6270,,35.4463,37.635,26.8689,,26.8693,,0.6273,85.4871,,7.579,,1.9043E+00,,1.0000E-12,,6.7570,6.7572,0.9293,,7.486,23.062,,,,,,,,,,,,
CalCOFI,2007SR,006,7,2007_006u,14-Jul-2020 07:54:56,13-Jul-2020 23:54:56,32.67974,-117.87386,093.3 035.0,093.3,035.0,486.000,490.017,,6.8022,,6.8025,,6.8024,34.2596,,34.2598,34.2601,,34.2617,34.2608,0.5163,,0.5218,0.5171,1.5711,,-99.0,0.6925,0.6048,22.456,22.9537,25.0327,68.328,,30.7843,27.9085,0.0321,,,,1.6276,,35.4632,37.652,26.8687,,26.8690,,0.6265,85.5036,,7.579,,1.9043E+00,,1.0000E-12,,6.7567,6.7569,0.9293,,7.576,23.054,,,,,,,,,,,,
CalCOFI,2007SR,006,7,2007_006u,14-Jul-2020 07:54:57,13-Jul-2020 23:54:57,32.67974,-117.87386,093.3 035.0,093.3,035.0,485.000,489.008,,6.8091,,6.8130,,6.8111,34.2599,,34.2601,34.2612,,34.2628,34.2615,0.5190,,0.5246,0.5199,1.5706,,-99.0,0.6913,0.6056,22.571,23.0738,25.1449,68.306,,30.7349,27.9399,0.0330,,,,1.6283,,35.4828,37.672,26.8680,,26.8684,,0.6265,85.5034,,7.579,,1.9043E+00,,1.0000E-12,,6.7636,6.7675,0.9293,,7.617,23.052,,,,,,,,,,,,
CalCOFI,2007SR,006,7,2007_006u,14-Jul-2020 07:54:58,13-Jul-2020 23:54:58,32.67974,-117.87386,093.3 035.0,093.3,035.0,484.000,487.998,,6.8365,,6.8395,,6.8380,34.2592,,34.2594,34.2603,,34.2619,34.2607,0.5242,,0.5300,0.5253,1.5698,,-99.0,0.6892,0.6073,22.797,23.3097,25.3653,68.274,,30.6631,28.0142,0.0323,,,,1.6290,,35.5025,37.692,26.8637,,26.8642,,0.6267,85.5000,,7.579,,1.9043E+00,,1.0000E-12,,6.7910,6.7940,0.9293,,7.697,23.055,,,,,,,,,,,,
CalCOFI,2007SR,006,7,2007_006u,14-Jul-2020 07:54:59,13-Jul-2020 23:54:59,32.67974,-117.87386,093.3 035.0,093.3,035.0,483.000,486.989,,6.8489,,6.8509,,6.8499,34.2587,,34.2589,34.2595,,34.2611,34.2600,0.5271,,0.5331,0.5283,1.5685,,-99.0,0.6859,0.6071,22.925,23.4433,25.4901,68.216,,30.5330,28.0116,0.0328,,,,1.6292,,35.5081,37.698,26.8616,,26.8620,,0.6273,85.4870,,7.579,,1.9043E+00,,1.0000E-12,,6.8034,6.8054,0.9293,,7.743,23.041,,,,,,,,,,,,
CalCOFI,2007SR,006,7,2007_006u,14-Jul-2020 07:55:00,13-Jul-2020 23:55:00,32.67974,-117.87386,093.3 035.0,093.3,035.0,482.000,485.980,,6.8597,,6.8607,,6.8602,34.2573,,34.2575,34.2581,,34.2597,34.2586,0.5356,,0.5419,0.5372,1.5671,,-99.0,0.6824,0.6098,23.292,23.8264,25.8480,68.156,,30.3984,28.1232,0.0334,,,,1.6283,,35.4828,37.672,26.8591,,26.8596,,0.6267,85.4991,,7.579,,1.9043E+00,,1.0000E-12,,6.8143,6.8153,0.9293,,7.869,23.026,,,,,,,,,,,,
CalCOFI,2007SR,006,7,2007_006u,14-Jul-2020 07:55:01,13-Jul-2020 23:55:01,32.67974,-117.87386,093.3 035.0,093.3,035.0,481.000,484.970,,6.8691,,6.8714,,6.8703,34.2562,,34.2564,34.2568,,34.2584,34.2574,0.5459,,0.5527,0.5479,1.5588,,-99.0,0.6612,0.6046,23.744,24.2983,26.2887,67.794,,29.5863,27.9375,0.0322,,,,1.6267,,35.4379,37.627,26.8569,,26.8571,,0.6289,85.4528,,7.579,,1.9043E+00,,1.0000E-12,,6.8238,6.8261,0.9293,,8.023,22.909,,,,,,,,,,,,
CalCOFI,2007SR,006,7,2007_006u,14-Jul-2020 07:55:02,13-Jul-2020 23:55:02,32.67974,-117.87386,093.3 035.0,093.3,035.0,480.000,483.961,,6.8922,,6.8964,,6.8943,34.2556,,34.2558,34.2570,,34.2586,34.2572,0.5550,,0.5622,0.5573,1.5615,,-99.0,0.6681,0.6127,24.137,24.7085,26.6720,67.911,,29.8488,28.2604,0.0329,,,,1.6247,,35.3818,37.570,26.8533,,26.8539,,0.6267,85.4981,,7.579,,1.9043E+00,,1.0000E-12,,6.8469,6.8511,0.9293,,8.160,22.962,,,,,,,,,,,,
CalCOFI,2007SR,006,7,2007_006u,14-Jul-2020 07:55:03,13-Jul-2020 23:55:03,32.67974,-117.87386,093.3 035.0,093.3,035.0,479.000,482.951,,6.9229,,6.9259,,6.9244,34.2541,,34.2543,34.2550,,34.2566,34.2555,0.5659,,0.5736,0.5687,1.5598,,-99.0,0.6638,0.6163,24.613,25.2054,27.1361,67.839,,29.6872,28.4117,0.0328,,,,1.6223,,35.3144,37.501,26.8480,,26.8482,,0.6281,85.4693,,7.579,,1.9043E+00,,1.0000E-12,,6.8776,6.8805,0.9293,,8.327,22.952,,,,,,,,,,,,
CalCOFI,2007SR,006,7,2007_006u,14-Jul-2020 07:55:04,13-Jul-2020 23:55:04,32.67974,-117.87386,093.3 035.0,093.3,035.0,478.000,481.942,,6.9330,,6.9357,,6.9344,34.2541,,34.2543,34.2552,,34.2568,34.2556,0.5719,,0.5799,0.5749,1.5585,,-99.0,0.6605,0.6177,24.873,25.4768,27.3897,67.783,,29.5616,28.4757,0.0330,,,,1.6199,,35.2470,37.433,26.8466,,26.8470,,0.6276,85.4797,,7.579,,1.9043E+00,,1.0000E-12,,6.8877,6.8904,0.9293,,8.417,22.938,,,,,,,,,,,,
CalCOFI,2007SR,006,7,2007_006u,14-Jul-2020 07:55:05,13-Jul-2020 23:55:05,32.67974,-117.87386,093.3 035.0,093.3,035.0,477.000,480.932,,6.9574,,6.9639,,6.9607,34.2518,,34.2520,34.2522,,34.2538,34.2529,0.5741,,0.5822,0.5772,1.5582,,-99.0,0.6597,0.6185,24.970,25.5781,27.4843,67.770,,29.5325,28.5084,0.0330,,,,1.6176,,35.1824,37.367,26.8414,,26.8408,,0.6275,85.4809,,7.580,,1.9043E+00,,1.0000E-12,,6.9121,6.9186,0.9293,,8.454,22.949,,,,,,,,,,,,
CalCOFI,2007SR,006,7,2007_006u,14-Jul-2020 07:55:06,13-Jul-2020 23:55:06,32.67974,-117.87386,093.3 035.0,093.3,035.0,476.000,479.923,,6.9720,,6.9749,,6.9735,34.2496,,34.2498,34.2502,,34.2518,34.2508,0.5781,,0.5864,0.5813,1.5576,,-99.0,0.6582,0.6198,25.143,25.7587,27.6530,67.744,,29.4741,28.5636,0.0330,,,,1.6148,,35.1038,37.288,26.8376,,26.8378,,0.6276,85.4798,,7.580,,1.9043E+00,,1.0000E-12,,6.9268,6.9297,0.9293,,8.516,22.945,,,,,,,,,,,,
CalCOFI,2007SR,006,7,2007_006u,14-Jul-2020 07:55:07,13-Jul-2020 23:55:07,32.67974,-117.87386,093.3 035.0,093.3,035.0,475.000,478.914,,6.9757,,6.9764,,6.9761,34.2491,,34.2493,34.2495,,34.2511,34.2502,0.5855,,0.5941,0.5890,1.5573,,-99.0,0.6574,0.6232,25.466,26.0959,27.9679,67.733,,29.4494,28.7087,0.0327,,,,1.6115,,35.0111,37.194,26.8368,,26.8370,,0.6276,85.4798,,7.580,,1.9043E+00,,1.0000E-12,,6.9306,6.9313,0.9293,,8.625,22.942,,,,,,,,,,,,
CalCOFI,2007SR,006,7,2007_006u,14-Jul-2020 07:55:08,13-Jul-2020 23:55:08,32.67974,-117.87386,093.3 035.0,093.3,035.0,474.000,477.904,,6.9771,,6.9782,,6.9777,34.2479,,34.2481,34.2482,,34.2498,34.2490,0.5928,,0.6017,0.5966,1.5603,,-99.0,0.6651,0.6309,25.783,26.4268,28.2771,67.862,,29.7388,29.0080,0.0316,,,,1.6082,,34.9184,37.100,26.8356,,26.8357,,0.6275,85.4816,,7.580,,1.9043E+00,,1.0000E-12,,6.9321,6.9332,0.9293,,8.733,22.987,,,,,,,,,,,,
CalCOFI,2007SR,006,7,2007_006u,14-Jul-2020 07:55:09,13-Jul-2020 23:55:09,32.67974,-117.87386,093.3 035.0,093.3,035.0,473.000,476.895,,6.9902,,6.9945,,6.9924,34.2463,,34.2465,34.2470,,34.2486,34.2476,0.5981,,0.6073,0.6021,1.5639,,-99.0,0.6742,0.6382,26.014,26.6679,28.5023,68.020,,30.0933,29.2978,0.0323,,,,1.6045,,34.8145,36.995,26.8326,,26.8325,,0.6282,85.4677,,7.581,,1.9043E+00,,1.0000E-12,,6.9452,6.9495,0.9293,,8.814,23.048,,,,,,,,,,,,
CalCOFI,2007SR,006,7,2007_006u,14-Jul-2020 07:55:10,13-Jul-2020 23:55:10,32.67974,-117.87386,093.3 035.0,093.3,035.0,472.000,475.885,,7.0024,,7.0060,,7.0042,34.2447,,34.2449,34.2450,,34.2466,34.2458,0.5999,,0.6091,0.6040,1.5598,,-99.0,0.6638,0.6339,26.092,26.7493,28.5784,67.840,,29.6895,29.1340,0.0335,,,,1.6002,,34.6938,36.872,26.8296,,26.8294,,0.6278,85.4765,,7.582,,1.9043E+00,,1.0000E-12,,6.9575,6.9611,0.9293,,8.843,22.993,,,,,,,,,,,,
CalCOFI,2007SR,006,7,2007_006u,14-Jul-2020 07:55:11,13-Jul-2020 23:55:11,32.67974,-117.87386,093.3 035.0,093.3,035.0,471.000,474.876,,7.0056,,7.0066,,7.0061,34.2439,,34.2441,34.2442,,34.2458,34.2450,0.6027,,0.6121,0.6069,1.5584,,-99.0,0.6602,0.6336,26.211,26.8736,28.6944,67.778,,29.5504,29.1224,0.0322,,,,1.5956,,34.5646,36.741,26.8285,,26.8286,,0.6278,85.4764,,7.582,,1.9043E+00,,1.0000E-12,,6.9607,6.9617,0.9293,,8.884,22.972,,,,,,,,,,,,
CalCOFI,2007SR,006,7,2007_006u,14-Jul-2020 07:55:12,13-Jul-2020 23:55:12,32.67974,-117.87386,093.3 035.0,093.3,035.0,470.000,473.867,,7.0054,,7.0062,,7.0058,34.2430,,34.2432,34.2432,,34.2448,34.2440,0.6079,,0.6175,0.6123,1.5597,,-99.0,0.6635,0.6379,26.440,27.1126,28.9177,67.837,,29.6828,29.3003,0.0328,,,,1.5918,,34.4579,36.633,26.8278,,26.8279,,0.6282,85.4663,,7.583,,1.9043E+00,,1.0000E-12,,6.9607,6.9615,0.9293,,8.961,22.992,,,,,,,,,,,,
CalCOFI,2007SR,006,7,2007_006u,14-Jul-2020 07:55:13,13-Jul-2020 23:55:13,32.67974,-117.87386,093.3 035.0,093.3,035.0,469.000,472.857,,7.0110,,7.0126,,7.0118,34.2421,,34.2423,34.2428,,34.2444,34.2434,0.6103,,0.6200,0.6148,1.5623,,-99.0,0.6701,0.6425,26.545,27.2222,29.0201,67.950,,29.9363,29.4782,0.0323,,,,1.5885,,34.3653,36.539,26.8264,,26.8267,,0.6281,85.4692,,7.583,,1.9043E+00,,1.0000E-12,,6.9663,6.9679,0.9293,,8.998,23.033,,,,,,,,,,,,
CalCOFI,2007SR,006,7,2007_006u,14-Jul-2020 07:55:14,13-Jul-2020 23:55:14,32.67974,-117.87386,093.3 035.0,093.3,035.0,468.000,471.848,,7.0170,,7.0180,,7.0175,34.2415,,34.2417,34.2421,,34.2437,34.2427,0.6108,,0.6205,0.6153,1.5592,,-99.0,0.6623,0.6388,26.564,27.2421,29.0387,67.817,,29.6379,29.3383,0.0330,,,,1.5857,,34.2866,36.459,26.8251,,26.8254,,0.6285,85.4613,,7.583,,1.9043E+00,,1.0000E-12,,6.9724,6.9734,0.9293,,9.005,22.991,,,,,,,,,,,,
CalCOFI,2007SR,006,7,2007_006u,14-Jul-2020 07:55:15,13-Jul-2020 23:55:15,32.67974,-117.87386,093.3 035.0,093.3,035.0,467.000,470.839,,7.0184,,7.0189,,7.0187,34.2411,,34.2413,34.2415,,34.2431,34.2422,0.6106,,0.6203,0.6151,1.5590,,-99.0,0.6617,0.6384,26.556,27.2337,29.0309,67.805,,29.6110,29.3210,0.0330,,,,1.5831,,34.2136,36.385,26.8245,,26.8248,,0.6280,85.4702,,7.583,,1.9043E+00,,1.0000E-12,,6.9739,6.9744,0.9293,,9.003,22.987,,,,,,,,,,,,
CalCOFI,2007SR,006,7,2007_006u,14-Jul-2020 07:55:16,13-Jul-2020 23:55:16,32.67974,-117.87386,093.3 035.0,093.3,035.0,466.000,469.829,,7.0187,,7.0191,,7.0189,34.2407,,34.2409,34.2411,,34.2427,34.2418,0.6108,,0.6205,0.6153,1.5616,,-99.0,0.6684,0.6419,26.566,27.2441,29.0406,67.919,,29.8667,29.4537,0.0335,,,,1.5807,,34.1462,36.317,26.8241,,26.8244,,0.6286,85.4594,,7.583,,1.9043E+00,,1.0000E-12,,6.9743,6.9747,0.9293,,9.006,23.026,,,,,,,,,,,,
CalCOFI,2007SR,006,7,2007_006u,14-Jul-2020 07:55:17,13-Jul-2020 23:55:17,32.67974,-117.87386,093.3 035.0,093.3,035.0,465.000,468.820,,7.0188,,7.0192,,7.0190,34.2403,,34.2405,34.2408,,34.2424,34.2415,0.6121,,0.6219,0.6167,1.5665,,-99.0,0.6808,0.6488,26.623,27.3036,29.0962,68.130,,30.3401,29.7182,0.0317,,,,1.5784,,34.0817,36.252,26.8238,,26.8242,,0.6284,85.4632,,7.583,,1.9043E+00,,1.0000E-12,,6.9745,6.9749,0.9293,,9.026,23.098,,,,,,,,,,,,